User: anonymous
Location: Robert Brownlee Observatory
(34.2308°N, 117.2089°W)
Time: 01:12:58
(UTC-07:00)
Language:

Cosmos 1943 - Orbit

View from above orbital plane
View from above orbital plane
View from above satellite
View from above satellite

Ground track
Ground track

The orbit data is extracted from the following two-line orbital elements,

1 19119U 88039A   14232.24047273  .00000215  00000-0  13550-3 0  2189
2 19119 071.0027 108.6710 0011802 196.8149 293.9406 14.14934993356119
Epoch (UTC): 20 August 2014 05:46:16
Eccentricity: 0.0011802
inclination: 71.0027°
perigee height: 834 km
apogee height: 851 km
right ascension of ascending node: 108.6710°
argument of perigee: 196.8149°
revolutions per day: 14.14934993
mean anomaly at epoch: 293.9406°
orbit number at epoch: 35611

The dashed part of the orbit path shows where the satellite is in the earth's shadow,  

DLR